Find Venmus

NORAD ID: 42901 Int'l Des: 2017-044 Owner: ISA/CNES Country: IL operational
LEOCIRCULARRETROGRADESSO

現在のビュー

3D地球を読み込み中...

Venmusについて

説明を読み込み中...

次回通過

Passes for default location (London). Set your location on the main map for personalized predictions.

高度履歴

Loading altitude history...

軌道要素

1 42901U 17044B 26149.59644602 .00009248 00000-0 50583-3 0 9997
2 42901 97.2724 187.0348 0005068 75.4528 284.7266 15.14463158478147
Epoch: May 29, 2026 • Age: 14 hours

現在のステータス

高度 548.8 km
速度 7.58 km/s
衛星直下点 -59.09°S, 46.83°E
打ち上げ日 Aug 2, 2017
運用期間 8.8 years
タイプ other

技術仕様

分類 Payload
質量 264.00 kg
乾燥質量 250.00 kg
総質量 264.00 kg
長さ 1.70 m
直径 1.20 m
スパン 4.50 m
形状 Box + 2 pan
製造者 IAI
バスタイプ Venms
フェーズステータス In Orbit
所有者/国 ISA/CNES/IL

Most Searched